sat.trackr.live / text

‹ back to catalog

STARLINK-36870

NORAD 67897 · 2026-035U

PAYLOAD ACTIVE UNKNOWN

§ Identity

Operator
Country
US
Launch date
2026-02-21
Launch site
AFWTR
Launch vehicle
Mass (kg)
RCS (m²)

Purposes: comms

External: N2YO · Heavens-Above · Gunter

§ Orbital elements

Epoch: 2026-09-19T06:06:34.389216Z

Period
93.91 min
Inclination
97.2851°
Eccentricity
0.0001266
Mean motion
15.33445910 rev/d
Perigee alt
464.7 km
Apogee alt
466.4 km
Semi-major
6,843.7 km
B*
2.4569e-4
RAAN
194.1462°
Arg perigee
85.4507°
Mean anomaly
274.6880°
Rev number
3,365

§ Raw data

STARLINK-368701 67897U 26035U   26262.25456469  .00007865  00000+0  24569-3 0  99962 67897  97.2851 194.1462 0001266  85.4507 274.6880 15.33445910 33659

JSON: /api/v1/satellites/67897 · /tle

For live sub-satellite position, see the globe view (requires WebGL).

§ Visibility from observer

Set your observer location to see the next 7 days of passes ≥ 10°. The values pass through the URL so the page stays shareable.

No JS? Fill the form by hand. The geolocation button needs JavaScript.